GW1374 Weather Reports


Display with metric or nautical units.
time (UTC)temp
F
wind
direction
speed
MPH
gust
MPH
rain 1hr
in
rain 24hr
in
rain mn
in
humidity
%
barometer
mb
20260508060040 40 279 1.0 2.0 0.00 0.01 0.00 75 1009.8
20260508054547 41 291 1.0 2.0 0.00 0.01 0.00 74 1009.8
20260508053045 41 291 1.0 3.0 0.00 0.01 0.00 74 1009.9
20260508051543 41 265 1.0 2.0 0.00 0.01 0.00 73 1009.9
20260508050042 40 282 1.0 2.0 0.00 0.01 0.00 73 1009.9
20260508044542 40 265 0.0 2.0 0.00 0.01 0.00 73 1009.9
20260508043051 40 292 1.0 3.0 0.00 0.01 0.00 74 1010.1
20260508041546 41 245 2.0 4.0 0.00 0.01 0.00 72 1009.8
20260508040053 42 309 1.0 2.0 0.00 0.01 0.00 64 1009.6
20260508034543 41 296 1.0 2.0 0.00 0.02 0.01 68 1009.8
20260508033040 41 309 0.0 2.0 0.00 0.02 0.01 67 1009.8
20260508031548 42 309 0.0 2.0 0.00 0.02 0.01 66 1009.7
20260508030049 42 9 0.0 2.0 0.00 0.02 0.01 65 1009.4
20260508024551 42 334 1.0 2.0 0.00 0.02 0.01 65 1009.3
20260508023049 42 44 1.0 3.0 0.00 0.02 0.01 65 1009.2
20260508021550 42 44 1.0 2.0 0.00 0.02 0.01 64 1009.2
20260508020050 43 51 1.0 2.0 0.00 0.02 0.01 64 1009.2
20260508014544 43 83 1.0 2.0 0.00 0.02 0.01 63 1009.2
20260508013049 44 65 1.0 3.0 0.00 0.02 0.01 63 1008.8
20260508011544 44 67 1.0 3.0 0.00 0.02 0.01 62 1008.9
20260508010042 45 56 1.0 3.0 0.00 0.02 0.01 63 1008.9
20260508004546 46 44 1.0 3.0 0.00 0.02 0.01 60 1008.8
20260508003041 46 9 1.0 2.0 0.00 0.02 0.01 59 1008.7
20260508001547 46 9 1.0 2.0 0.00 0.02 0.01 59 1008.6
20260508000051 47 0 1.0 2.0 0.00 0.02 0.01 58 1008.5
20260507234542 48 309 1.0 4.0 0.00 0.02 0.01 57 1008.3
20260507233047 48 44 1.0 4.0 0.00 0.02 0.01 58 1008.3
20260507231553 48 38 1.0 3.0 0.00 0.02 0.01 55 1008.2
20260507230051 49 19 1.0 5.0 0.00 0.02 0.01 55 1008.1
20260507224546 49 30 1.0 4.0 0.00 0.02 0.01 56 1008.1
20260507223042 49 316 1.0 3.0 0.00 0.02 0.01 56 1008.1
20260507221542 50 34 2.0 5.0 0.00 0.02 0.01 53 1008.1
20260507220040 50 325 1.0 5.0 0.00 0.02 0.01 56 1008.2
20260507214601 51 347 2.0 8.0 0.00 0.02 0.01 54 1008.3
20260507213046 50 309 1.0 6.0 0.00 0.02 0.01 56 1008.3
20260507211542 50 36 2.0 8.0 0.00 0.02 0.01 54 1008.5
20260507210050 50 70 1.0 6.0 0.00 0.02 0.01 54 1008.4
20260507204546 51 30 2.0 5.0 0.00 0.02 0.01 51 1008.2
20260507203103 51 291 2.0 4.0 0.00 0.02 0.01 54 1008.2
20260507201555 51 13 3.0 13.0 0.00 0.02 0.01 51 1008.2
20260507200104 52 342 2.0 9.0 0.00 0.02 0.01 50 1008.5
20260507194543 52 41 1.0 11.0 0.00 0.04 0.01 51 1008.5
20260507193054 52 34 3.0 9.0 0.00 0.04 0.01 51 1008.8
20260507191547 53 57 4.0 8.0 0.00 0.04 0.01 50 1008.8
20260507190042 52 270 2.0 9.0 0.00 0.04 0.01 52 1008.9
20260507184556 53 46 2.0 11.0 0.00 0.05 0.01 52 1008.9
20260507183049 53 284 2.0 8.0 0.00 0.05 0.01 50 1009.1
20260507181543 53 312 3.0 9.0 0.00 0.05 0.01 46 1009.2
20260507180048 55 24 2.0 8.0 0.00 0.05 0.01 50 1009.2
20260507174551 53 254 1.0 11.0 0.00 0.05 0.01 52 1009.3
20260507173049 52 93 3.0 10.0 0.00 0.05 0.01 52 1009.3
20260507171547 52 291 2.0 6.0 0.00 0.05 0.01 51 1009.5
20260507170057 51 296 1.0 6.0 0.00 0.05 0.01 56 1009.8
20260507164556 50 298 2.0 8.0 0.00 0.06 0.01 51 1009.9
20260507163047 49 291 1.0 7.0 0.00 0.06 0.01 57 1010.2
20260507161548 49 275 1.0 4.0 0.00 0.06 0.01 56 1010.2
20260507160052 48 38 1.0 7.0 0.00 0.06 0.01 60 1010.3
20260507154553 49 336 2.0 7.0 0.00 0.06 0.01 52 1010.4
20260507153048 50 165 2.0 6.0 0.00 0.06 0.01 56 1010.6
20260507151543 49 329 2.0 8.0 0.00 0.06 0.01 56 1010.4
20260507150051 49 244 3.0 8.0 0.00 0.06 0.01 56 1010.3
20260507144549 48 23 2.0 7.0 0.00 0.09 0.01 60 1010.5
20260507143057 47 316 2.0 7.0 0.00 0.09 0.01 62 1010.7
20260507141552 47 9 3.0 7.0 0.00 0.09 0.01 58 1010.9
20260507140046 46 323 2.0 6.0 0.00 0.09 0.01 63 1011.1
20260507134546 45 306 2.0 6.0 0.00 0.16 0.01 67 1011.3
20260507133102 44 265 2.0 7.0 0.00 0.16 0.01 67 1011.3
20260507131553 43 275 1.0 5.0 0.00 0.16 0.01 71 1011.1
20260507130104 42 309 1.0 4.0 0.00 0.16 0.01 74 1011.2
20260507124547 41 329 0.0 4.0 0.00 0.26 0.01 77 1011.3
20260507123046 40 275 1.0 4.0 0.00 0.26 0.01 78 1011.3
20260507121601 39 67 1.0 3.0 0.00 0.26 0.01 84 1011.1
20260507120055 39 255 0.0 2.0 0.00 0.26 0.01 86 1010.9
20260507114632 38 178 0.0 2.0 0.00 0.34 0.01 88 1010.9
20260507113048 37 67 1.0 3.0 0.00 0.34 0.01 91 1010.8
20260507111550 36 9 0.0 1.0 0.00 0.34 0.01 92 1010.8
20260507110046 35 0 0.0 2.0 0.00 0.34 0.01 92 1010.9
20260507104551 35 325 0.0 2.0 0.00 0.36 0.01 92 1010.9
20260507103042 35 330 1.0 2.0 0.00 0.36 0.01 91 1010.9
20260507101547 35 0 0.0 2.0 0.00 0.36 0.01 92 1010.6
20260507100050 35 303 1.0 2.0 0.01 0.36 0.01 92 1010.5
20260507094547 35 298 1.0 3.0 0.01 0.37 0.01 93 1010.4
20260507093048 36 316 1.0 2.0 0.01 0.37 0.01 93 1010.7
20260507091547 36 325 1.0 3.0 0.01 0.37 0.01 93 1010.7
20260507090042 36 316 1.0 2.0 0.00 0.36 0.00 92 1010.8
20260507084554 37 0 0.0 3.0 0.00 0.36 0.00 92 1010.7
20260507083042 37 9 1.0 2.0 0.00 0.36 0.00 92 1010.7
20260507081547 38 9 1.0 2.0 0.00 0.36 0.00 92 1010.6
20260507074543 38 9 0.0 2.0 0.00 0.36 0.00 92 1010.3
20260507073048 38 325 1.0 3.0 0.00 0.36 0.00 92 1010.3
20260507071550 39 334 0.0 3.0 0.00 0.36 0.00 92 1010.6
20260507070041 39 341 1.0 4.0 0.00 0.36 0.00 92 1010.8
20260507064544 39 22 1.0 5.0 0.00 0.36 0.00 94 1010.7
20260507063045 40 338 2.0 4.0 0.00 0.36 0.00 94 1010.7
20260507061542 40 341 1.0 4.0 0.00 0.36 0.00 94 1010.5